Location: Stoke Bliss
(52.2667°N, 2.5167°W)
Time: 01:58:25
(UTC+00:00)

SL-16 R/B - Pass Details

Date: 03 March 2021
Orbit: 842 x 846 km, 71.0° (Epoch: 11 April)

Event Time Altitude Azimuth Distance (km) Brightness Sun altitude
Rises 19:31:05 0° 220° (SW) 3,393 5.8 -15.7°
Reaches altitude 10° 19:33:33 10° 223° (SW) 2,462 5.1 -16.1°
Maximum altitude 19:39:10 65° 305° (NW) 932 2.6 -16.9°
Drops below altitude 10° 19:44:50 10° 27° (NNE) 2,479 4.5 -17.7°
Sets 19:47:19 0° 31° (NNE) 3,418 5.2 -18.1°
